PTLOE KMAW-MWCR

Flight info

Callsign PTLOE
Flight time 2h 51m
Altitude FL410
Route RUSLR J35 MEM J41 LOBBS Q116 SMELZ Q110 SHEEK Q118 FEMID Q79 MCLAW Y442 FUNDI UM335 ALVEK UM328 UCL UG448 ATUVI
Aircraft LJ35/M-S/N

Departure

Time 2026-04-22 19:43
Airport Malden Regional Airport (KMAW)

Arrival

Time 2026-04-22 22:34
Airport Owen Roberts International Airport (MWCR)
Time Latitude Longitude Altitude Speed Heading
2026-04-22 19:22 36.60341 -89.98934 298 ft 0 kts 138°
2026-04-22 19:34 36.60341 -89.98933 298 ft 0 kts 138°
2026-04-22 19:35 36.60340 -89.98932 298 ft 1 kts 135°
2026-04-22 19:35 36.60344 -89.98911 298 ft 5 kts 36°
2026-04-22 19:36 36.60378 -89.98895 298 ft 5 kts 23°
2026-04-22 19:36 36.60421 -89.98868 298 ft 11 kts 30°
2026-04-22 19:36 36.60518 -89.98793 298 ft 21 kts 28°
2026-04-22 19:36 36.60617 -89.98753 298 ft 13 kts 339°
2026-04-22 19:37 36.60685 -89.98835 298 ft 14 kts 306°
2026-04-22 19:37 36.60723 -89.98943 298 ft 14 kts 268°
2026-04-22 19:37 36.60722 -89.99042 298 ft 8 kts 275°
2026-04-22 19:37 36.60725 -89.99114 298 ft 8 kts 271°
2026-04-22 19:38 36.60728 -89.99188 298 ft 9 kts 272°
2026-04-22 19:38 36.60728 -89.99222 298 ft 0 kts 271°
2026-04-22 19:41 36.60728 -89.99239 298 ft 4 kts 271°
2026-04-22 19:42 36.60729 -89.99291 298 ft 8 kts 271°
2026-04-22 19:42 36.60709 -89.99334 298 ft 0 kts 193°
2026-04-22 19:42 36.60614 -89.99341 298 ft 38 kts 180°
2026-04-22 19:42 36.60077 -89.99350 298 ft 114 kts 183°
2026-04-22 19:43 36.57953 -89.99387 1229 ft 170 kts 184°
2026-04-22 19:43 36.56721 -89.99422 1922 ft 186 kts 186°
2026-04-22 19:43 36.55409 -89.99883 2657 ft 209 kts 203°
2026-04-22 19:44 36.53993 -90.00639 3359 ft 237 kts 204°
2026-04-22 19:44 36.52407 -90.01388 4533 ft 247 kts 200°
2026-04-22 19:44 36.50767 -90.02045 5829 ft 251 kts 198°
2026-04-22 19:44 36.49090 -90.02641 6952 ft 255 kts 197°
2026-04-22 19:45 36.47378 -90.03210 7865 ft 258 kts 196°
2026-04-22 19:45 36.45631 -90.03774 8742 ft 262 kts 195°
2026-04-22 19:45 36.43862 -90.04337 9550 ft 266 kts 195°
2026-04-22 19:45 36.42053 -90.04911 10264 ft 274 kts 195°
2026-04-22 19:46 36.40174 -90.05507 11289 ft 284 kts 194°
2026-04-22 19:46 36.38236 -90.06121 12330 ft 292 kts 194°
2026-04-22 19:46 36.36259 -90.06747 13441 ft 296 kts 194°
2026-04-22 19:46 36.34255 -90.07382 14486 ft 300 kts 195°
2026-04-22 19:47 36.32219 -90.08026 15440 ft 306 kts 195°
2026-04-22 19:47 36.30119 -90.08692 15987 ft 327 kts 195°
2026-04-22 19:47 36.27762 -90.09392 15973 ft 370 kts 191°
2026-04-22 19:47 36.25150 -90.09710 16096 ft 386 kts 181°
2026-04-22 19:48 36.22439 -90.09507 16712 ft 397 kts 175°
2026-04-22 19:48 36.19707 -90.09242 17969 ft 390 kts 176°
2026-04-22 19:48 36.17053 -90.08993 19056 ft 375 kts 176°
2026-04-22 19:48 36.14462 -90.08751 19577 ft 375 kts 176°
2026-04-22 19:49 36.11865 -90.08510 20126 ft 367 kts 176°
2026-04-22 19:49 36.09404 -90.08280 21051 ft 352 kts 176°
2026-04-22 19:49 36.06957 -90.08051 21780 ft 356 kts 176°
2026-04-22 19:49 36.04479 -90.07819 22463 ft 360 kts 176°
2026-04-22 19:50 36.01971 -90.07584 23123 ft 363 kts 176°
2026-04-22 19:50 35.99458 -90.07349 23751 ft 366 kts 176°
2026-04-22 19:50 35.96902 -90.07110 24354 ft 370 kts 176°
2026-04-22 19:50 35.94324 -90.06870 24921 ft 374 kts 176°
2026-04-22 19:51 35.91708 -90.06626 25569 ft 380 kts 176°
2026-04-22 19:51 35.89077 -90.06380 26260 ft 383 kts 176°
2026-04-22 19:51 35.86405 -90.06131 26902 ft 387 kts 176°
2026-04-22 19:51 35.83716 -90.05881 27502 ft 391 kts 176°
2026-04-22 19:52 35.80997 -90.05628 28075 ft 394 kts 176°
2026-04-22 19:52 35.78257 -90.05373 28627 ft 398 kts 176°
2026-04-22 19:52 35.75492 -90.05116 29159 ft 401 kts 176°
2026-04-22 19:52 35.72701 -90.04857 29731 ft 402 kts 176°
2026-04-22 19:53 35.69918 -90.04599 30364 ft 401 kts 176°
2026-04-22 19:53 35.67143 -90.04341 30935 ft 401 kts 176°
2026-04-22 19:53 35.64368 -90.04084 31471 ft 401 kts 176°
2026-04-22 19:53 35.61581 -90.03826 31998 ft 401 kts 176°
2026-04-22 19:54 35.58812 -90.03550 32525 ft 401 kts 173°
2026-04-22 19:54 35.56140 -90.02642 32964 ft 401 kts 154°
2026-04-22 19:54 35.53826 -90.00749 33232 ft 403 kts 134°
2026-04-22 19:54 35.52019 -89.98137 33512 ft 405 kts 123°
2026-04-22 19:55 35.50419 -89.95276 33792 ft 410 kts 120°
2026-04-22 19:55 35.48861 -89.92330 34070 ft 414 kts 120°
2026-04-22 19:55 35.47278 -89.89350 34348 ft 419 kts 120°
2026-04-22 19:55 35.45661 -89.86377 34689 ft 421 kts 121°
2026-04-22 19:56 35.44012 -89.83413 35162 ft 420 kts 121°
2026-04-22 19:56 35.42354 -89.80487 35604 ft 419 kts 122°
2026-04-22 19:56 35.40686 -89.77573 36021 ft 418 kts 122°
2026-04-22 19:56 35.39015 -89.74675 36437 ft 416 kts 122°
2026-04-22 19:57 35.37345 -89.71789 36820 ft 416 kts 122°
2026-04-22 19:57 35.35675 -89.68912 37196 ft 415 kts 122°
2026-04-22 19:57 35.34010 -89.66047 37561 ft 414 kts 122°
2026-04-22 19:57 35.32344 -89.63184 37906 ft 413 kts 122°
2026-04-22 19:58 35.30683 -89.60332 38235 ft 412 kts 122°
2026-04-22 19:58 35.29024 -89.57484 38563 ft 412 kts 122°
2026-04-22 19:58 35.27367 -89.54643 38889 ft 411 kts 122°
2026-04-22 19:58 35.25764 -89.51898 39177 ft 410 kts 123°
2026-04-22 19:59 35.24054 -89.48970 39425 ft 411 kts 123°
2026-04-22 20:00 35.14030 -89.31856 40751 ft 416 kts 124°
2026-04-22 20:00 35.12347 -89.28991 40948 ft 417 kts 124°
2026-04-22 20:01 35.10651 -89.26107 41085 ft 419 kts 124°
2026-04-22 20:01 35.07218 -89.20273 41166 ft 429 kts 124°
2026-04-22 20:02 35.03694 -89.14295 41169 ft 440 kts 124°
2026-04-22 20:02 35.00081 -89.08176 41170 ft 450 kts 124°
2026-04-22 20:03 34.96387 -89.01933 41171 ft 460 kts 124°
2026-04-22 20:03 34.92614 -88.95568 41174 ft 468 kts 124°
2026-04-22 20:04 34.88778 -88.89109 41177 ft 475 kts 124°
2026-04-22 20:04 34.84895 -88.82582 41180 ft 481 kts 124°
2026-04-22 20:05 34.80951 -88.75965 41180 ft 485 kts 124°
2026-04-22 20:05 34.76982 -88.69319 41181 ft 486 kts 124°
2026-04-22 20:06 34.73035 -88.62723 41181 ft 482 kts 124°
2026-04-22 20:06 34.69114 -88.56183 41180 ft 479 kts 124°
2026-04-22 20:07 34.65200 -88.49665 41179 ft 477 kts 124°
2026-04-22 20:07 34.61307 -88.43195 41178 ft 475 kts 124°
2026-04-22 20:08 34.57429 -88.36761 41178 ft 473 kts 125°
2026-04-22 20:08 34.53553 -88.30341 41177 ft 471 kts 125°
2026-04-22 20:09 34.49688 -88.23952 41177 ft 470 kts 125°
2026-04-22 20:09 34.45830 -88.17585 41186 ft 469 kts 125°
2026-04-22 20:10 34.41980 -88.11244 41187 ft 468 kts 125°
2026-04-22 20:10 34.38130 -88.04912 41186 ft 467 kts 125°
2026-04-22 20:11 34.34285 -87.98601 41189 ft 467 kts 125°
2026-04-22 20:11 34.30441 -87.92303 41194 ft 466 kts 125°
2026-04-22 20:12 34.26596 -87.86013 41199 ft 466 kts 125°
2026-04-22 20:12 34.22753 -87.79738 41201 ft 465 kts 125°
2026-04-22 20:13 34.18916 -87.73485 41201 ft 465 kts 125°
2026-04-22 20:13 34.15061 -87.67212 41201 ft 465 kts 125°
2026-04-22 20:14 34.11226 -87.60982 41201 ft 465 kts 125°
2026-04-22 20:14 34.07376 -87.54740 41218 ft 464 kts 125°
2026-04-22 20:15 34.03524 -87.48505 41219 ft 464 kts 125°
2026-04-22 20:15 33.99671 -87.42277 41219 ft 464 kts 125°
2026-04-22 20:16 33.95817 -87.36057 41215 ft 464 kts 126°
2026-04-22 20:16 33.91954 -87.29834 41213 ft 464 kts 126°
2026-04-22 20:17 33.88093 -87.23627 41212 ft 464 kts 126°
2026-04-22 20:17 33.84233 -87.17433 41212 ft 464 kts 126°
2026-04-22 20:18 33.80363 -87.11234 41212 ft 465 kts 126°
2026-04-22 20:18 33.76482 -87.05026 41214 ft 465 kts 126°
2026-04-22 20:19 33.72608 -86.98841 41217 ft 465 kts 126°
2026-04-22 20:19 33.68650 -86.92702 41220 ft 465 kts 130°
2026-04-22 20:20 33.64073 -86.87244 41220 ft 465 kts 141°
2026-04-22 20:20 33.58953 -86.82514 41222 ft 465 kts 142°
2026-04-22 20:21 33.53856 -86.77773 41222 ft 466 kts 142°
2026-04-22 20:21 33.48734 -86.73020 41223 ft 466 kts 143°
2026-04-22 20:22 33.43610 -86.68284 41223 ft 466 kts 143°
2026-04-22 20:22 33.38480 -86.63555 41223 ft 466 kts 143°
2026-04-22 20:23 33.33349 -86.58833 41223 ft 467 kts 143°
2026-04-22 20:23 33.28242 -86.54142 41223 ft 467 kts 143°
2026-04-22 20:24 33.23070 -86.49398 41223 ft 467 kts 143°
2026-04-22 20:24 33.17922 -86.44684 41223 ft 467 kts 143°
2026-04-22 20:25 33.12778 -86.39980 41223 ft 467 kts 143°
2026-04-22 20:25 33.07626 -86.35276 41224 ft 467 kts 143°
2026-04-22 20:26 33.02479 -86.30584 41224 ft 467 kts 143°
2026-04-22 20:26 32.97326 -86.25894 41224 ft 467 kts 143°
2026-04-22 20:27 32.92169 -86.21207 41221 ft 467 kts 143°
2026-04-22 20:27 32.87022 -86.16536 41219 ft 467 kts 144°
2026-04-22 20:28 32.81852 -86.11851 41216 ft 467 kts 144°
2026-04-22 20:28 32.76685 -86.07176 41215 ft 467 kts 144°
2026-04-22 20:29 32.71528 -86.02518 41216 ft 467 kts 144°
2026-04-22 20:29 32.66363 -85.97858 41215 ft 467 kts 144°
2026-04-22 20:30 32.61201 -85.93209 41207 ft 467 kts 144°
2026-04-22 20:30 32.56034 -85.88562 41206 ft 467 kts 144°
2026-04-22 20:31 32.50871 -85.83926 41206 ft 467 kts 144°
2026-04-22 20:31 32.45699 -85.79287 41206 ft 467 kts 144°
2026-04-22 20:32 32.40524 -85.74654 41206 ft 467 kts 144°
2026-04-22 20:32 32.35349 -85.70027 41213 ft 467 kts 144°
2026-04-22 20:33 32.30184 -85.65416 41226 ft 466 kts 144°
2026-04-22 20:33 32.25016 -85.60809 41226 ft 467 kts 145°
2026-04-22 20:34 32.19841 -85.56203 41226 ft 467 kts 145°
2026-04-22 20:34 32.14670 -85.51607 41226 ft 467 kts 145°
2026-04-22 20:35 32.08624 -85.46241 41223 ft 467 kts 145°
2026-04-22 20:35 32.04307 -85.42416 41208 ft 467 kts 145°
2026-04-22 20:36 31.99125 -85.37830 41208 ft 467 kts 146°
2026-04-22 20:36 31.93932 -85.33241 41213 ft 467 kts 146°
2026-04-22 20:37 31.88747 -85.28666 41226 ft 467 kts 146°
2026-04-22 20:37 31.83559 -85.24095 41227 ft 467 kts 146°
2026-04-22 20:38 31.78365 -85.19525 41226 ft 467 kts 146°
2026-04-22 20:38 31.73172 -85.14962 41226 ft 467 kts 146°
2026-04-22 20:39 31.67972 -85.10401 41226 ft 468 kts 146°
2026-04-22 20:39 31.62766 -85.05841 41226 ft 468 kts 146°
2026-04-22 20:40 31.57559 -85.01285 41226 ft 468 kts 146°
2026-04-22 20:40 31.52339 -84.96737 41227 ft 468 kts 146°
2026-04-22 20:41 31.47105 -84.92198 41205 ft 469 kts 146°
2026-04-22 20:41 31.41873 -84.87666 41204 ft 469 kts 147°
2026-04-22 20:42 31.36637 -84.83135 41204 ft 469 kts 147°
2026-04-22 20:42 31.31388 -84.78599 41205 ft 470 kts 147°
2026-04-22 20:43 31.26154 -84.74081 41205 ft 470 kts 147°
2026-04-22 20:43 31.20892 -84.69546 41205 ft 470 kts 147°
2026-04-22 20:44 31.15640 -84.65026 41205 ft 470 kts 147°
2026-04-22 20:44 31.10374 -84.60501 41205 ft 470 kts 147°
2026-04-22 20:45 31.05138 -84.56007 41205 ft 471 kts 147°
2026-04-22 20:45 30.99851 -84.51476 41205 ft 471 kts 147°
2026-04-22 20:46 30.91946 -84.44713 41205 ft 471 kts 148°
2026-04-22 20:46 30.86666 -84.40204 41205 ft 471 kts 148°
2026-04-22 20:47 30.81382 -84.35698 41205 ft 472 kts 148°
2026-04-22 20:47 30.76104 -84.31203 41205 ft 472 kts 148°
2026-04-22 20:48 30.70811 -84.26702 41209 ft 472 kts 148°
2026-04-22 20:48 30.65567 -84.22248 41209 ft 472 kts 148°
2026-04-22 20:49 30.60230 -84.17723 41210 ft 472 kts 148°
2026-04-22 20:49 30.54933 -84.13236 41223 ft 472 kts 148°
2026-04-22 20:50 30.49638 -84.08758 41224 ft 472 kts 149°
2026-04-22 20:50 30.44328 -84.04274 41224 ft 473 kts 149°
2026-04-22 20:51 30.39033 -83.99809 41224 ft 473 kts 149°
2026-04-22 20:51 30.33712 -83.95327 41224 ft 473 kts 149°
2026-04-22 20:52 30.28392 -83.90853 41224 ft 473 kts 149°
2026-04-22 20:52 30.23081 -83.86392 41225 ft 474 kts 149°
2026-04-22 20:53 30.17749 -83.81920 41225 ft 474 kts 149°
2026-04-22 20:53 30.12421 -83.77460 41225 ft 474 kts 149°
2026-04-22 20:54 30.07095 -83.73010 41225 ft 474 kts 149°
2026-04-22 20:54 30.01767 -83.68563 41225 ft 474 kts 149°
2026-04-22 20:55 29.96421 -83.64108 41225 ft 474 kts 149°
2026-04-22 20:55 29.91099 -83.59679 41225 ft 475 kts 149°
2026-04-22 20:56 29.85744 -83.55228 41224 ft 475 kts 149°
2026-04-22 20:56 29.80423 -83.50809 41222 ft 475 kts 149°
2026-04-22 20:57 29.75043 -83.46346 41213 ft 475 kts 150°
2026-04-22 20:57 29.69685 -83.41906 41212 ft 475 kts 150°
2026-04-22 20:58 29.64327 -83.37473 41212 ft 476 kts 150°
2026-04-22 20:58 29.58969 -83.33047 41212 ft 476 kts 150°
2026-04-22 20:59 29.53595 -83.28612 41212 ft 476 kts 150°
2026-04-22 20:59 29.48236 -83.24196 41212 ft 476 kts 150°
2026-04-22 21:00 29.42857 -83.19770 41212 ft 477 kts 150°
2026-04-22 21:00 29.37466 -83.15340 41212 ft 477 kts 150°
2026-04-22 21:01 29.32087 -83.10926 41212 ft 477 kts 150°
2026-04-22 21:01 29.26705 -83.06514 41212 ft 477 kts 150°
2026-04-22 21:02 29.21310 -83.02098 41212 ft 477 kts 150°
2026-04-22 21:02 29.15906 -82.97681 41213 ft 478 kts 150°
2026-04-22 21:03 29.10518 -82.93283 41213 ft 478 kts 151°
2026-04-22 21:03 29.05107 -82.88871 41213 ft 478 kts 151°
2026-04-22 21:04 28.99715 -82.84481 41213 ft 478 kts 151°
2026-04-22 21:04 28.94292 -82.80072 41212 ft 478 kts 151°
2026-04-22 21:05 28.88884 -82.75680 41213 ft 479 kts 151°
2026-04-22 21:05 28.83469 -82.71288 41212 ft 479 kts 151°
2026-04-22 21:06 28.78039 -82.66890 41213 ft 479 kts 151°
2026-04-22 21:06 28.72608 -82.62497 41210 ft 480 kts 151°
2026-04-22 21:07 28.67176 -82.58109 41210 ft 480 kts 151°
2026-04-22 21:07 28.61737 -82.53721 41207 ft 480 kts 151°
2026-04-22 21:08 28.56291 -82.49333 41203 ft 481 kts 152°
2026-04-22 21:08 28.50833 -82.44941 41202 ft 481 kts 152°
2026-04-22 21:09 28.45385 -82.40563 41202 ft 482 kts 152°
2026-04-22 21:09 28.39917 -82.36174 41202 ft 482 kts 152°
2026-04-22 21:10 28.34459 -82.31799 41203 ft 482 kts 152°
2026-04-22 21:10 28.28980 -82.27413 41203 ft 482 kts 152°
2026-04-22 21:11 28.23501 -82.23033 41203 ft 483 kts 152°
2026-04-22 21:11 28.18030 -82.18664 41203 ft 483 kts 152°
2026-04-22 21:12 28.12543 -82.14288 41203 ft 483 kts 152°
2026-04-22 21:12 28.07043 -82.09922 41203 ft 482 kts 153°
2026-04-22 21:13 28.01374 -82.05979 41203 ft 478 kts 157°
2026-04-22 21:13 27.95626 -82.02197 41204 ft 479 kts 157°
2026-04-22 21:14 27.89897 -81.98390 41202 ft 479 kts 157°
2026-04-22 21:14 27.84174 -81.94545 41201 ft 480 kts 157°
2026-04-22 21:15 27.78456 -81.90687 41201 ft 480 kts 156°
2026-04-22 21:15 27.72741 -81.86829 41201 ft 480 kts 156°
2026-04-22 21:16 27.67015 -81.82968 41199 ft 480 kts 157°
2026-04-22 21:16 27.61255 -81.79216 41198 ft 475 kts 162°
2026-04-22 21:17 27.55188 -81.76659 41197 ft 459 kts 175°
2026-04-22 21:17 27.48981 -81.75262 41200 ft 456 kts 178°
2026-04-22 21:18 27.42772 -81.73855 41200 ft 456 kts 178°
2026-04-22 21:18 27.36558 -81.72450 41199 ft 456 kts 178°
2026-04-22 21:19 27.30348 -81.71054 41197 ft 456 kts 178°
2026-04-22 21:19 27.24137 -81.69664 41194 ft 456 kts 178°
2026-04-22 21:20 27.17921 -81.68276 41191 ft 456 kts 178°
2026-04-22 21:20 27.11704 -81.66889 41179 ft 457 kts 178°
2026-04-22 21:21 27.05485 -81.65503 41178 ft 457 kts 178°
2026-04-22 21:21 26.99268 -81.64157 41178 ft 456 kts 179°
2026-04-22 21:22 26.93048 -81.62853 41178 ft 456 kts 179°
2026-04-22 21:22 26.86823 -81.61549 41168 ft 456 kts 179°
2026-04-22 21:23 26.80610 -81.60243 41167 ft 456 kts 179°
2026-04-22 21:23 26.74378 -81.58931 41167 ft 456 kts 179°
2026-04-22 21:24 26.68163 -81.57624 41168 ft 456 kts 179°
2026-04-22 21:24 26.61938 -81.56316 41165 ft 456 kts 179°
2026-04-22 21:25 26.55728 -81.55012 41158 ft 456 kts 179°
2026-04-22 21:25 26.49507 -81.53708 41153 ft 456 kts 179°
2026-04-22 21:26 26.43286 -81.52405 41153 ft 455 kts 179°
2026-04-22 21:26 26.37075 -81.51105 41153 ft 455 kts 179°
2026-04-22 21:27 26.30863 -81.49807 41153 ft 455 kts 179°
2026-04-22 21:27 26.24656 -81.48511 41152 ft 455 kts 179°
2026-04-22 21:28 26.18438 -81.47214 41151 ft 455 kts 179°
2026-04-22 21:28 26.12238 -81.45852 41151 ft 458 kts 177°
2026-04-22 21:29 26.06043 -81.44073 41151 ft 463 kts 173°
2026-04-22 21:29 25.99887 -81.41994 41151 ft 464 kts 172°
2026-04-22 21:30 25.93728 -81.39895 41151 ft 464 kts 172°
2026-04-22 21:30 25.87572 -81.37815 41151 ft 464 kts 173°
2026-04-22 21:31 25.81405 -81.35743 41151 ft 463 kts 173°
2026-04-22 21:31 25.75252 -81.33681 41151 ft 463 kts 173°
2026-04-22 21:32 25.69078 -81.31616 41151 ft 463 kts 173°
2026-04-22 21:32 25.63007 -81.29587 41151 ft 463 kts 173°
2026-04-22 21:33 25.56755 -81.27501 41151 ft 463 kts 173°
2026-04-22 21:33 25.50599 -81.25448 41151 ft 463 kts 173°
2026-04-22 21:34 25.44439 -81.23397 41151 ft 464 kts 173°
2026-04-22 21:34 25.38275 -81.21346 41151 ft 464 kts 173°
2026-04-22 21:35 25.32105 -81.19295 41151 ft 464 kts 173°
2026-04-22 21:35 25.25922 -81.17243 41146 ft 464 kts 173°
2026-04-22 21:36 25.19752 -81.15197 41143 ft 464 kts 173°
2026-04-22 21:36 25.13569 -81.13148 41143 ft 464 kts 172°
2026-04-22 21:37 25.07394 -81.11104 41144 ft 464 kts 172°
2026-04-22 21:37 25.01217 -81.09062 41144 ft 464 kts 172°
2026-04-22 21:38 24.95050 -81.07025 41144 ft 464 kts 173°
2026-04-22 21:38 24.88870 -81.04986 41144 ft 464 kts 173°
2026-04-22 21:39 24.82720 -81.02960 41144 ft 464 kts 173°
2026-04-22 21:39 24.76511 -81.01359 41143 ft 452 kts 182°
2026-04-22 21:40 24.70374 -81.01170 41143 ft 438 kts 192°
2026-04-22 21:40 24.64276 -81.01399 41141 ft 439 kts 191°
2026-04-22 21:41 24.58186 -81.01607 41141 ft 439 kts 191°
2026-04-22 21:41 24.52080 -81.01731 41141 ft 442 kts 189°
2026-04-22 21:42 24.45934 -81.01643 41141 ft 442 kts 188°
2026-04-22 21:42 24.39793 -81.01548 41142 ft 442 kts 189°
2026-04-22 21:43 24.33651 -81.01477 41139 ft 442 kts 189°
2026-04-22 21:43 24.27539 -81.01420 41139 ft 442 kts 189°
2026-04-22 21:44 24.21368 -81.01367 41135 ft 442 kts 189°
2026-04-22 21:44 24.15287 -81.01317 41135 ft 442 kts 189°
2026-04-22 21:45 24.09097 -81.01265 41132 ft 442 kts 189°
2026-04-22 21:45 24.02955 -81.01214 41128 ft 442 kts 189°
2026-04-22 21:46 23.96836 -81.01126 41127 ft 444 kts 187°
2026-04-22 21:46 23.90631 -81.00851 41124 ft 445 kts 186°
2026-04-22 21:47 23.84450 -81.00554 41120 ft 445 kts 186°
2026-04-22 21:47 23.78288 -81.00276 41116 ft 445 kts 187°
2026-04-22 21:48 23.72124 -81.00010 41113 ft 444 kts 187°
2026-04-22 21:48 23.65955 -80.99749 41110 ft 444 kts 187°
2026-04-22 21:49 23.59802 -80.99490 41108 ft 444 kts 187°
2026-04-22 21:49 23.53658 -80.99231 41105 ft 444 kts 187°
2026-04-22 21:50 23.47443 -80.98970 41102 ft 445 kts 187°
2026-04-22 21:50 23.41266 -80.98710 41100 ft 445 kts 186°
2026-04-22 21:51 23.35095 -80.98451 41099 ft 445 kts 186°
2026-04-22 21:52 23.25828 -80.98063 41080 ft 445 kts 186°
2026-04-22 21:52 23.19651 -80.97802 41078 ft 445 kts 186°
2026-04-22 21:53 23.13480 -80.97542 41077 ft 445 kts 186°
2026-04-22 21:53 23.07287 -80.97281 41077 ft 446 kts 186°
2026-04-22 21:54 23.01236 -80.97701 41076 ft 430 kts 199°
2026-04-22 21:54 22.95633 -80.99619 41079 ft 420 kts 208°
2026-04-22 21:55 22.90168 -81.01815 41079 ft 420 kts 208°
2026-04-22 21:55 22.84704 -81.04009 41079 ft 420 kts 208°
2026-04-22 21:56 22.79247 -81.06195 41079 ft 420 kts 208°
2026-04-22 21:56 22.73769 -81.08386 41079 ft 420 kts 208°
2026-04-22 21:57 22.68292 -81.10575 41079 ft 420 kts 208°
2026-04-22 21:57 22.62813 -81.12763 41079 ft 420 kts 208°
2026-04-22 21:58 22.57336 -81.14948 41078 ft 421 kts 208°
2026-04-22 21:58 22.51852 -81.17134 41076 ft 421 kts 208°
2026-04-22 21:59 22.46369 -81.19318 41076 ft 421 kts 208°
2026-04-22 21:59 22.40884 -81.21500 41076 ft 421 kts 208°
2026-04-22 22:00 22.35393 -81.23683 41076 ft 421 kts 208°
2026-04-22 22:00 22.29909 -81.25862 41076 ft 421 kts 207°
2026-04-22 22:01 22.24421 -81.28040 41077 ft 421 kts 207°
2026-04-22 22:01 22.18930 -81.30218 41075 ft 421 kts 207°
2026-04-22 22:02 22.13433 -81.32396 41074 ft 421 kts 207°
2026-04-22 22:02 22.07942 -81.34571 41051 ft 422 kts 207°
2026-04-22 22:03 22.02442 -81.36746 41050 ft 422 kts 207°
2026-04-22 22:03 21.96941 -81.38920 41050 ft 422 kts 207°
2026-04-22 22:04 21.91441 -81.41093 41050 ft 422 kts 207°
2026-04-22 22:04 21.85932 -81.43267 41050 ft 422 kts 207°
2026-04-22 22:05 21.80423 -81.45439 41050 ft 423 kts 207°
2026-04-22 22:05 21.74910 -81.47611 41050 ft 423 kts 207°
2026-04-22 22:06 21.69394 -81.49782 41050 ft 423 kts 207°
2026-04-22 22:06 21.63875 -81.51923 41050 ft 425 kts 205°
2026-04-22 22:07 21.57960 -81.53002 41049 ft 441 kts 189°
2026-04-22 22:07 21.51783 -81.52651 41052 ft 446 kts 183°
2026-04-22 22:07 21.48709 -81.52430 40887 ft 442 kts 184°
2026-04-22 22:08 21.45637 -81.52213 40373 ft 444 kts 184°
2026-04-22 22:08 21.42564 -81.51997 39877 ft 441 kts 184°
2026-04-22 22:08 21.39520 -81.51783 39379 ft 438 kts 184°
2026-04-22 22:08 21.36489 -81.51570 38879 ft 436 kts 184°
2026-04-22 22:09 21.33487 -81.51360 38382 ft 434 kts 184°
2026-04-22 22:09 21.30474 -81.51149 37880 ft 432 kts 184°
2026-04-22 22:09 21.27489 -81.50941 37382 ft 431 kts 184°
2026-04-22 22:09 21.24510 -81.50733 36884 ft 430 kts 184°
2026-04-22 22:10 21.21521 -81.50525 36384 ft 430 kts 184°
2026-04-22 22:10 21.18552 -81.50318 35886 ft 429 kts 184°
2026-04-22 22:10 21.15572 -81.50110 35386 ft 429 kts 184°
2026-04-22 22:10 21.12603 -81.49903 34887 ft 429 kts 184°
2026-04-22 22:11 21.09639 -81.49696 34389 ft 429 kts 184°
2026-04-22 22:11 21.06665 -81.49488 33889 ft 429 kts 184°
2026-04-22 22:11 21.03696 -81.49281 33391 ft 429 kts 184°
2026-04-22 22:11 21.00720 -81.49074 32891 ft 429 kts 183°
2026-04-22 22:12 20.97744 -81.48866 32392 ft 429 kts 183°
2026-04-22 22:12 20.94772 -81.48659 31894 ft 430 kts 183°
2026-04-22 22:12 20.91790 -81.48452 31395 ft 430 kts 182°
2026-04-22 22:12 20.88804 -81.48243 30895 ft 431 kts 182°
2026-04-22 22:13 20.85819 -81.48035 30397 ft 431 kts 182°
2026-04-22 22:13 20.82827 -81.47827 29898 ft 432 kts 182°
2026-04-22 22:13 20.79838 -81.47619 29400 ft 432 kts 181°
2026-04-22 22:13 20.76836 -81.47409 28901 ft 433 kts 181°
2026-04-22 22:14 20.73834 -81.47200 28402 ft 433 kts 181°
2026-04-22 22:14 20.70840 -81.46991 27905 ft 434 kts 181°
2026-04-22 22:14 20.67829 -81.46782 27405 ft 434 kts 181°
2026-04-22 22:14 20.64812 -81.46572 26906 ft 435 kts 181°
2026-04-22 22:15 20.61797 -81.46363 26407 ft 435 kts 181°
2026-04-22 22:15 20.58777 -81.46153 25908 ft 436 kts 181°
2026-04-22 22:15 20.55757 -81.45943 25410 ft 436 kts 181°
2026-04-22 22:15 20.52734 -81.45733 24912 ft 437 kts 180°
2026-04-22 22:16 20.49703 -81.45523 24413 ft 437 kts 180°
2026-04-22 22:16 20.46672 -81.45312 23915 ft 436 kts 180°
2026-04-22 22:16 20.43692 -81.45102 23415 ft 425 kts 180°
2026-04-22 22:16 20.40779 -81.44897 22914 ft 416 kts 180°
2026-04-22 22:17 20.37933 -81.44697 22417 ft 410 kts 180°
2026-04-22 22:17 20.35087 -81.44499 21913 ft 406 kts 180°
2026-04-22 22:17 20.32296 -81.44307 21415 ft 403 kts 180°
2026-04-22 22:17 20.29511 -81.44115 20914 ft 400 kts 180°
2026-04-22 22:18 20.26747 -81.43926 20415 ft 398 kts 179°
2026-04-22 22:18 20.23990 -81.43736 19915 ft 397 kts 179°
2026-04-22 22:18 20.21239 -81.43547 19416 ft 396 kts 179°
2026-04-22 22:18 20.18493 -81.43358 18917 ft 396 kts 179°
2026-04-22 22:19 20.15749 -81.43169 18418 ft 396 kts 179°
2026-04-22 22:19 20.13006 -81.42980 17918 ft 396 kts 179°
2026-04-22 22:19 20.10270 -81.42792 17421 ft 396 kts 179°
2026-04-22 22:19 20.07528 -81.42603 16922 ft 396 kts 178°
2026-04-22 22:20 20.04786 -81.42414 16424 ft 392 kts 178°
2026-04-22 22:20 20.02128 -81.42228 15923 ft 377 kts 178°
2026-04-22 22:20 19.99576 -81.42049 15419 ft 360 kts 178°
2026-04-22 22:20 19.97131 -81.41880 14917 ft 347 kts 178°
2026-04-22 22:21 19.94751 -81.41716 14415 ft 339 kts 178°
2026-04-22 22:21 19.92434 -81.41557 14013 ft 330 kts 178°
2026-04-22 22:21 19.90173 -81.41402 13638 ft 323 kts 177°
2026-04-22 22:21 19.87961 -81.41251 13262 ft 318 kts 177°
2026-04-22 22:22 19.85773 -81.41101 12887 ft 314 kts 177°
2026-04-22 22:22 19.83603 -81.40952 12511 ft 311 kts 177°
2026-04-22 22:22 19.81451 -81.40805 12137 ft 310 kts 177°
2026-04-22 22:22 19.79310 -81.40663 11762 ft 308 kts 177°
2026-04-22 22:23 19.77182 -81.40528 11387 ft 307 kts 177°
2026-04-22 22:23 19.75050 -81.40400 11007 ft 307 kts 176°
2026-04-22 22:23 19.72925 -81.40281 10633 ft 306 kts 177°
2026-04-22 22:23 19.70814 -81.40170 10259 ft 302 kts 177°
2026-04-22 22:24 19.68726 -81.40069 9883 ft 299 kts 177°
2026-04-22 22:24 19.66660 -81.39977 9501 ft 296 kts 176°
2026-04-22 22:24 19.64613 -81.39894 9128 ft 294 kts 176°
2026-04-22 22:24 19.62574 -81.39820 8753 ft 293 kts 177°
2026-04-22 22:25 19.60545 -81.39752 8379 ft 292 kts 177°
2026-04-22 22:25 19.58520 -81.39691 8005 ft 291 kts 177°
2026-04-22 22:25 19.56506 -81.39640 7624 ft 288 kts 182°
2026-04-22 22:25 19.54627 -81.40246 7250 ft 285 kts 208°
2026-04-22 22:26 19.53183 -81.41643 6875 ft 283 kts 234°
2026-04-22 22:26 19.52442 -81.43546 6510 ft 280 kts 257°
2026-04-22 22:26 19.52103 -81.45567 6136 ft 279 kts 260°
2026-04-22 22:26 19.51560 -81.47527 5754 ft 278 kts 242°
2026-04-22 22:27 19.50330 -81.49056 5382 ft 274 kts 215°
2026-04-22 22:27 19.48649 -81.49971 5020 ft 272 kts 199°
2026-04-22 22:27 19.46880 -81.50663 4646 ft 271 kts 197°
2026-04-22 22:27 19.45107 -81.51328 4273 ft 272 kts 197°
2026-04-22 22:28 19.43336 -81.52018 3898 ft 270 kts 198°
2026-04-22 22:28 19.41589 -81.52726 3523 ft 269 kts 198°
2026-04-22 22:28 19.39857 -81.53445 3148 ft 268 kts 198°
2026-04-22 22:28 19.38132 -81.54171 2774 ft 267 kts 198°
2026-04-22 22:29 19.36411 -81.54897 2398 ft 267 kts 198°
2026-04-22 22:29 19.34627 -81.55295 2018 ft 261 kts 178°
2026-04-22 22:29 19.32870 -81.54995 1686 ft 255 kts 162°
2026-04-22 22:29 19.31185 -81.54549 1559 ft 246 kts 162°
2026-04-22 22:30 19.29540 -81.54107 1503 ft 242 kts 162°
2026-04-22 22:30 19.27927 -81.53668 1489 ft 238 kts 161°
2026-04-22 22:30 19.26533 -81.52831 1494 ft 228 kts 132°
2026-04-22 22:30 19.25783 -81.51419 1493 ft 217 kts 100°
2026-04-22 22:31 19.25854 -81.49896 1500 ft 205 kts 73°
2026-04-22 22:31 19.26251 -81.48489 1497 ft 195 kts 72°
2026-04-22 22:31 19.26608 -81.47137 1489 ft 186 kts 73°
2026-04-22 22:31 19.26883 -81.45905 1377 ft 160 kts 75°
2026-04-22 22:32 19.27095 -81.44808 1202 ft 147 kts 76°
2026-04-22 22:32 19.27301 -81.43786 1069 ft 138 kts 75°
2026-04-22 22:32 19.27509 -81.42825 989 ft 133 kts 75°
2026-04-22 22:32 19.27725 -81.41871 849 ft 131 kts 74°
2026-04-22 22:33 19.27937 -81.40967 715 ft 125 kts 73°
2026-04-22 22:33 19.28157 -81.40083 605 ft 122 kts 73°
2026-04-22 22:33 19.28370 -81.39233 499 ft 117 kts 73°
2026-04-22 22:33 19.28594 -81.38420 346 ft 116 kts 71°
2026-04-22 22:34 19.28826 -81.37600 211 ft 119 kts 73°
2026-04-22 22:34 19.29040 -81.36764 50 ft 113 kts 74°
2026-04-22 22:34 19.29204 -81.36078 11 ft 76 kts 74°
2026-04-22 22:34 19.29276 -81.35790 11 ft 9 kts 79°
2026-04-22 22:35 19.29293 -81.35729 11 ft 10 kts 71°
2026-04-22 22:35 19.29325 -81.35658 11 ft 11 kts 36°
2026-04-22 22:35 19.29404 -81.35666 11 ft 14 kts 343°
2026-04-22 22:35 19.29437 -81.35721 11 ft 10 kts 308°
2026-04-22 22:36 19.29464 -81.35735 11 ft 0 kts 346°